Regional Weather Roundup
Issued by NWS

Home | Current Version | Previous Version | Graphics & Text | Print | Product List | Glossary Off
Versions: 1 2 3 4 5 6 7 8 9 10 11 12 13 14 15 16 17 18 19 20 21 22 23 24 25 26 27 28 29 30 31 32 33 34 35 36 37 38 39 40 41 42 43 44 45 46 47 48 49 50

000
ASUS43 KDTX 201610
RWRMI
MICHIGAN HOURLY REGIONAL WEATHER ROUNDUP
NATIONAL WEATHER SERVICE DETROIT/PONTIAC MI
1100 AM EST MON NOV 20 2017

NOTE: "FAIR" INDICATES FEW OR NO CLOUDS BELOW 12,000 FEET WITH NO
SIGNIFICANT WEATHER AND/OR OBSTRUCTION TO VISIBILITY.

MIZ047>049-052>055-059>063-066>070-074>076-081>083-201700-
SOUTHEAST LOWER MICHIGAN

CITY           SKY/WX    TMP DP  RH WIND       PRES   REMARKS
ADRIAN         SUNNY     37  25  61 SW15G23   30.03F WCI  28
ALMA           SUNNY     37  28  70 S13G22    29.91F WCI  29
ANN ARBOR      SUNNY     39  25  57 S13G18    30.00F WCI  31
BAD AXE        CLOUDY    37  30  74 SW10G18   29.92S WCI  30
CARO           CLOUDY    39  29  67 S14G23    29.92S WCI  30
DETROIT CITY   SUNNY    N/A N/A N/A SW14G24   30.00F
DETROIT        PTSUNNY   40  25  55 SW18      30.02F WCI  31
FLINT          SUNNY     39  26  59 SW14G21   29.95F WCI  31
GROSSE ILE     SUNNY     40  26  58 SW14      30.02F WCI  32
HILLSDALE      SUNNY     39  25  56 S13G20    29.98S WCI  32
HOWELL         CLOUDY    40  27  59 S13       29.95F WCI  33

CITY           SKY/WX    TMP DP  RH WIND       PRES   REMARKS
JACKSON        SUNNY     41  25  53 S21G28    29.97F
LAMBERTVILLE   SUNNY     42  25  50 S10G18    30.04F
LANSING        SUNNY     39  26  59 SW16G25   29.95F WCI  30
LAPEER         FAIR      39  26  59 SW12G18   29.95S WCI  31
MASON          CLOUDY    41  26  56 SW7G17    29.96S
MONROE         SUNNY     41  24  51 SW13      30.03F
MT. CLEMENS    PTSUNNY   39  26  59 SW16G23   29.97F WCI  30
PONTIAC        CLOUDY    38  25  59 S12G23    29.96F WCI  30
PORT HOPE        N/A     38  29  70 SW10      29.89F WCI  31
PORT HURON     MOSUNNY   37  25  60 S9        29.98S WCI  31
TRI CITIES     SUNNY     38  29  70 SW14G22   29.92F WCI  30
MIDLAND        FAIR      38  30  71 SW14      29.90S WCI  30
TROY           SUNNY     40  25  56 S12G17    30.00F WCI  33
SAGINAW HB     CLOUDY    36  28  75 SW14      29.91F WCI  27
$$
MIZ043>046-050>051-056>058-064>065-071>073-077>080-201700-
SOUTHWEST LOWER MICHIGAN

CITY           SKY/WX    TMP DP  RH WIND       PRES   REMARKS
BATTLE CREEK   CLOUDY    40  27  59 SW16G24   29.96S WCI  31
BENTON HARBOR  SUNNY     43  26  51 S12G21    29.94F
BIG RAPIDS     CLOUDY    37  32  82 S5        29.85F WCI  33
COLDWATER      SUNNY     41  24  51 SW13G18   29.98S
FREMONT        PTSUNNY   40  35  81 S12G18    29.86F WCI  33
HOLLAND        SUNNY     42  32  67 S18       29.92S
GRAND RAPIDS   MOSUNNY   39  29  67 SW16G22   29.92F WCI  30
IONIA          FAIR      39  26  60 S14       29.92F WCI  31
KALAMAZOO      SUNNY     41  25  53 SW15G22   29.96F
LUDINGTON      CLOUDY    42  33  71 SW16      29.83S
MARSHALL       SUNNY     40  25  56 S14G20    29.97S WCI  32
MOUNT PLEASANT SUNNY     39  30  69 SW13G21   29.89S WCI  32
MUSKEGON       PTSUNNY   46  34  62 SW18G26   29.88F
SOUTH HAVEN    SUNNY     43  27  52 S13G20    29.93F
$$
MIZ016>042-201700-
NORTHERN LOWER MICHIGAN

CITY           SKY/WX    TMP DP  RH WIND       PRES   REMARKS
ALPENA         CLOUDY    33  27  78 SE6       29.87S WCI  28
BEAVER ISLAND  CLOUDY    38  32  79 SE8       29.78F WCI  32
BELLAIRE       SUNNY     38  32  80 S7        29.82S WCI  32
CADILLAC       CLOUDY    35  32  89 S10       29.81S WCI  27
CHARLEVOIX     MOSUNNY   38  31  76 S7        29.83F WCI  32
FRANKFORT      CLOUDY    43  35  72 S9        29.80S
GAYLORD        CLOUDY    32  27  81 S7        29.80F WCI  26
GRAYLING       CLOUDY    35  28  78 S7        29.83S WCI  29
HARBOR SPRINGS CLOUDY    34  27  76 CALM      29.81F
MANISTEE       CLOUDY    41  33  73 S9        29.81F
OSCODA         CLOUDY    36  29  74 SW9       29.88S WCI  29
PELLSTON       CLOUDY    32  26  78 SE10      29.81F WCI  24
ROGERS CITY    PTSUNNY   33  26  75 S7        29.85F WCI  26
TRAVERSE CITY  CLOUDY    40  31  70 SW7       29.80F
$$
MIZ007>008-015-201700-
EASTERN UPPER MICHIGAN

CITY           SKY/WX    TMP DP  RH WIND       PRES   REMARKS
KINROSS        MOSUNNY   34  23  64 S8        29.81F WCI  27
MACKINAC ISLAN CLOUDY    34  25  68 S9        29.80F WCI  27
NEWBERRY       CLOUDY    29  22  76 SE6       29.76F WCI  23
S. S. MARIE    MOSUNNY   31  23  72 SE5       29.80F WCI  26
MUNISING         N/A     31  20  63 S10       29.73F WCI  22
$$
MIZ004>006-011>014-085-201700-
CENTRAL UPPER MICHIGAN

CITY           SKY/WX    TMP DP  RH WIND       PRES   REMARKS
MANISTIQUE     CLOUDY    32  22  66 SE5       29.76F WCI  28
ESCANABA       CLOUDY    34  25  69 VRB3      29.76F
MENOMINEE      CLOUDY    35  25  66 SW10      29.77S WCI  27
SAWYER-GWINN   PTSUNNY   25  21  86 S9        29.70F WCI  15
$$
MIZ001>003-009>011-084-201700-
WESTERN UPPER MICHIGAN

CITY           SKY/WX    TMP DP  RH WIND       PRES   REMARKS
IRON MOUNTAIN  MOSUNNY   27  19  72 SE7       29.70F WCI  19
HOUGHTON       CLOUDY    26  21  81 SE5       29.63F WCI  20
COPPER HARBOR    N/A     34  24  67 SW14G22   29.65F WCI  25
IRONWOOD       FLURRIES  31  25  78 S8        29.59F WCI  23
$$

ABBREVIATIONS USED IN REMARKS
   TC - TEMPERATURE IN CELSIUS
  WCI - WIND CHILL INDEX
   HX - HEAT INDEX
  VSB - VISIBILITY




USA.gov is the U.S. government's official web portal to all federal, state and local government web resources and services.